Location: Miles
(41.4492°N, 81.6087°W)
Time: 22:13:52
(UTC+00:00)

Altair - All Passes

Search period start: 11 September 2024 00:00
Search period end: 21 September 2024 00:00
Orbit: 1501 x 1682 km, 47.2° (Epoch: 11 September)

Date Brightness Start Highest point End Pass type
(mag) Time Alt. Az. Time Alt. Az. Time Alt. Az.
11 Sep - 07:12:13 10° S 07:20:39 33° SE 07:29:13 10° ENE visible
11 Sep - 09:14:31 10° WSW 09:24:37 84° SSE 09:34:50 10° ENE visible
11 Sep - 11:20:00 10° W 11:30:07 64° N 11:40:10 10° ENE daylight
11 Sep - 13:25:47 10° WNW 13:36:01 75° NNE 13:46:00 10° ESE daylight
11 Sep - 15:31:01 10° WNW 15:40:45 55° SW 15:50:11 10° SE daylight
11 Sep - 17:38:49 10° W 17:43:48 15° WSW 17:48:44 10° SSW daylight
12 Sep - 06:47:24 10° S 06:55:31 30° SE 07:03:47 10° ENE visible
12 Sep - 08:49:19 10° SW 08:59:21 80° SSE 09:09:33 10° ENE visible
12 Sep - 10:54:40 10° W 11:04:46 65° N 11:14:52 10° ENE daylight
12 Sep - 13:00:29 10° WNW 13:10:42 73° NNE 13:20:43 10° ESE daylight
12 Sep - 15:05:43 10° WNW 15:15:34 59° SW 15:25:08 10° SE daylight
12 Sep - 17:12:58 10° W 17:18:45 17° WSW 17:24:26 10° SSW daylight
13 Sep - 06:22:38 10° S 06:30:25 27° SE 06:38:19 10° ENE visible
13 Sep - 08:24:08 10° SW 08:34:07 76° SSE 08:44:17 10° ENE visible
13 Sep - 10:29:20 10° W 10:39:26 66° N 10:49:33 10° ENE visible
13 Sep - 12:35:11 10° WNW 12:45:23 71° NNE 12:55:25 10° E daylight
13 Sep - 14:40:25 10° WNW 14:50:22 63° SW 15:00:03 10° SE daylight
13 Sep - 16:47:14 10° W 16:53:41 19° SW 17:00:00 10° SSW daylight
14 Sep - 05:57:56 10° S 06:05:18 24° SE 06:12:49 10° ENE visible
14 Sep - 07:58:58 10° SW 08:08:53 72° SE 08:19:00 10° ENE visible
14 Sep - 10:04:00 10° W 10:14:06 68° NNW 10:24:15 10° ENE visible
14 Sep - 12:09:52 10° WNW 12:20:03 69° NNE 12:30:06 10° E daylight
14 Sep - 14:15:07 10° WNW 14:25:10 68° SW 14:34:56 10° SE daylight
14 Sep - 16:21:36 10° W 16:28:36 22° SW 16:35:28 10° S daylight
15 Sep - 05:33:18 10° S 05:40:13 22° SE 05:47:14 10° E visible
15 Sep - 07:33:50 10° SW 07:43:39 67° SE 07:53:43 10° ENE visible
15 Sep - 09:38:42 10° W 09:48:46 69° NNW 09:58:57 10° ENE visible
15 Sep - 11:44:34 10° WNW 11:54:44 68° NNE 12:04:47 10° E daylight
15 Sep - 13:49:50 10° WNW 13:59:56 72° SW 14:09:48 10° SE daylight
15 Sep - 15:56:02 10° WNW 16:03:30 24° SW 16:10:49 10° S daylight
16 Sep - 05:08:45 10° SSE 05:15:08 20° SE 05:21:37 10° E visible
16 Sep - 07:08:43 10° SW 07:18:27 63° SE 07:28:25 10° ENE visible
16 Sep - 09:13:23 10° W 09:23:27 71° NNW 09:33:38 10° ENE visible
16 Sep - 11:19:15 10° WNW 11:29:24 66° N 11:39:28 10° E daylight
16 Sep - 13:24:33 10° WNW 13:34:43 76° SSW 13:44:39 10° SE daylight
16 Sep - 15:30:32 10° WNW 15:38:24 27° SW 15:46:08 10° S daylight
17 Sep - 04:44:18 10° SSE 04:50:03 17° ESE 04:55:53 10° E visible
17 Sep - 06:43:38 10° SW 06:53:15 59° SE 07:03:08 10° ENE visible
17 Sep - 08:48:04 10° WSW 08:58:08 73° NNW 09:08:20 10° ENE visible
17 Sep - 10:53:56 10° WNW 11:04:04 65° N 11:14:08 10° E daylight
17 Sep - 12:59:16 10° WNW 13:09:29 80° SSW 13:19:28 10° SE daylight
17 Sep - 15:05:04 10° WNW 15:13:17 30° SW 15:21:23 10° S daylight
18 Sep - 04:20:01 10° SSE 04:25:00 15° ESE 04:30:02 10° E visible
18 Sep - 06:18:35 10° SW 06:28:03 55° SE 06:37:50 10° ENE visible
18 Sep - 08:22:46 10° WSW 08:32:48 75° NNW 08:43:03 10° ENE visible
18 Sep - 10:28:38 10° WNW 10:38:43 64° N 10:48:48 10° E visible
18 Sep - 12:33:59 10° WNW 12:44:13 84° SSW 12:54:16 10° ESE daylight
18 Sep - 14:39:38 10° WNW 14:48:10 32° SW 14:56:33 10° S daylight
19 Sep - 03:55:57 10° SE 03:59:56 13° ESE 04:03:58 10° E night (unlit)
19 Sep - 05:53:33 10° SSW 06:02:53 51° SE 06:12:31 10° ENE visible
19 Sep - 07:57:29 10° WSW 08:07:31 78° NNW 08:17:45 10° ENE visible
19 Sep - 10:03:19 10° WNW 10:13:23 64° N 10:23:28 10° E visible
19 Sep - 12:08:44 10° WNW 12:18:58 87° SSW 12:29:03 10° ESE daylight
19 Sep - 14:14:13 10° WNW 14:23:02 35° SW 14:31:43 10° SSE daylight
20 Sep - 03:32:23 10° SE 03:34:53 11° ESE 03:37:25 10° ESE night (unlit)
20 Sep - 05:28:31 10° SSW 05:37:43 48° SE 05:47:11 10° ENE visible
20 Sep - 07:32:13 10° WSW 07:42:13 80° NNW 07:52:28 10° ENE visible
20 Sep - 09:37:59 10° WNW 09:48:02 63° N 09:58:08 10° E visible
20 Sep - 11:43:27 10° WNW 11:53:41 89° NNE 12:03:49 10° ESE daylight
20 Sep - 13:48:50 10° WNW 13:57:54 39° SW 14:06:49 10° SSE daylight
